Tracking 18980 objects as of 18-Feb-2018
HD Live streaming from Space Station
objects crossing your sky now

CRRES DEB (CANISTER)

Track CRRES DEB (CANISTER) now!


NORAD ID: 27051
Int'l Code: 1990-065U
Perigee: 319.7 km
Apogee: 30,167.1 km
Inclination: 18.0 °
Period: 527.1 minutes
Semi major axis: 21614 km
RCS: 0.1304 m2 (medium)
Launch date: July 25, 1990
Source: United States (US)
Launch site: AIR FORCE EASTERN TEST RANGE (AFETR)

Note: This is SATELLITE DEBRIS
aabbcc
Your satellite tracking list
Your tracking list is empty




NASA's NSSDC Master Catalog

Two Line Element Set (TLE):
1 27051U 90065U   18049.23313765 -.00000205 +00000-0 +19497-3 0  9998
2 27051 017.9774 105.4738 6904505 084.1962 344.3011 02.73203885048757
Source of the keplerian elements: AFSPC